Lid_Strength_Index
5 5 5 4 4 4 4 3 3 3 3 3 3 3 3 3 4 4 7 5 4 -0 1 3 5 5 5 6 5 5 6 9 9 9 8 5 6 5 4 6 5 4 4 3 2
5 4 3 3 3 3 3 3 3 3 3 3 3 3 3 3 5 7 2 0 -2 -2 5 6 7 6 7 6 6 6 7 8 7 7 7 7 5 5 6 6 6 5 4 3 2
4 3 3 3 3 3 3 3 3 3 3 3 3 3 3 3 6 4 -1 -2 -1 -0 5 6 6 6 7 7 7 7 7 7 7 6 6 7 7 5 5 6 5 6 5 4 3
4 4 4 3 3 3 3 3 3 3 3 3 3 3 3 4 8 5 -2 -2 -2 4 6 6 7 8 8 8 7 8 6 7 7 7 8 8 6 5 5 4 4 3 3 4 4
5 5 4 3 3 3 3 3 3 3 3 3 3 3 4 8 8 -0 -2 -2 3 5 6 6 7 7 9 8 8 8 7 7 7 8 8 9 8 7 5 4 4 3 4 4 4
5 5 5 4 3 3 3 3 3 3 3 3 3 3 6 8 4 -1 1 5 5 5 6 6 7 7 8 8 8 7 7 7 7 8 8 9 7 5 4 3 4 4 4 4 4
4 4 4 3 3 3 3 3 3 3 3 3 2 3 7 8 2 1 3 4 5 6 7 6 6 6 7 8 7 8 8 7 7 7 7 8 7 6 4 4 5 5 5 4 4
3 3 3 3 3 3 3 3 3 3 3 2 2 3 8 5 0 2 2 2 3 5 6 5 5 6 7 7 8 8 8 8 6 6 7 7 9 8 5 5 5 5 5 5 4
3 3 3 3 3 3 3 4 3 3 2 1 3 4 6 2 3 2 2 3 3 3 4 5 6 8 7 8 9 9 9 9 8 5 7 7 8 6 5 5 6 5 5 5 4
3 3 3 3 3 3 4 3 2 2 2 2 2 5 4 5 3 3 1 2 4 4 6 6 7 7 8 8 10 10 10 9 9 8 7 8 9 7 6 6 6 6 5 5 5
3 3 3 3 3 4 4 4 6 6 3 7 7 6 5 3 3 4 2 4 4 5 7 7 7 8 8 8 9 9 10 10 9 8 8 9 9 8 7 6 6 6 5 5 5
3 3 3 3 4 4 5 5 5 5 7 6 5 5 4 3 5 5 3 5 6 7 7 7 8 7 7 9 9 9 9 9 8 7 8 8 9 7 6 7 6 6 6 5 4
4 4 4 4 4 5 5 4 3 5 7 7 5 5 4 3 5 5 4 5 6 7 7 8 7 7 8 9 9 8 9 9 9 7 7 8 9 8 6 6 5 5 5 5 5
4 4 4 4 5 5 4 3 4 5 8 8 6 5 4 4 6 4 4 5 6 7 7 8 7 8 8 8 8 9 8 8 8 8 10 8 13 9 8 7 6 6 6 5 5
4 4 4 5 5 4 3 4 4 3 13 7 6 4 5 6 6 6 4 4 6 7 7 8 8 7 8 7 8 8 8 8 8 9 9 10 10 10 8 8 7 6 6 5 4
4 4 4 5 5 3 4 4 4 10 14 8 7 7 7 6 6 5 5 4 5 7 7 8 6 6 7 7 7 7 8 8 8 9 11 11 12 11 9 9 7 6 6 5 5
4 4 5 5 5 5 3 4 10 12 7 9 8 7 8 8 7 6 7 7 7 9 9 7 7 6 6 7 6 7 9 11 12 11 12 10 11 10 8 7 7 7 6 5 5
5 5 5 4 3 4 3 6 13 11 9 7 8 8 8 8 8 7 7 8 7 7 9 10 11 7 6 7 8 8 9 11 15 13 12 10 13 10 7 6 5 5 6 5 5
5 5 4 3 3 3 5 10 11 10 7 8 8 9 9 8 8 8 8 8 7 6 9 10 10 7 7 6 7 8 10 8 12 11 12 11 10 8 7 6 6 5 6 6 6
6 5 3 3 2 3 7 11 9 7 6 7 9 8 10 9 8 8 9 7 7 6 6 8 11 8 7 6 6 7 7 11 10 15 15 12 13 10 9 8 6 6 6 6 5
5 5 3 3 2 5 9 10 8 6 6 7 8 9 8 9 8 9 9 7 7 7 6 7 9 9 9 8 9 8 9 10 10 11 13 14 11 8 8 7 6 6 5 5 5
7 6 3 3 6 7 8 8 7 6 5 7 7 7 8 8 9 9 9 8 6 6 8 7 8 10 10 8 7 7 9 9 11 12 12 13 12 6 6 6 6 5 5 5 4
7 7 2 3 9 8 7 7 6 6 6 6 7 6 6 8 10 8 8 6 6 7 7 7 9 11 11 9 7 9 9 9 10 10 13 13 10 6 6 6 5 6 5 5 5
5 7 5 6 7 7 8 8 8 6 7 6 6 6 7 8 7 9 9 7 6 7 6 5 9 10 11 10 8 10 9 9 9 11 10 10 9 7 6 6 5 5 5 5 5
6 7 7 8 8 7 7 8 8 8 6 6 7 7 8 10 9 9 8 7 7 6 6 7 10 9 9 10 9 9 9 9 10 9 11 10 10 7 6 6 5 4 5 5 5
6 7 8 8 8 8 9 8 9 8 8 7 8 7 7 9 8 9 8 8 8 7 7 7 10 9 10 9 9 10 9 9 9 9 9 9 9 5 5 6 6 5 6 6 5
6 6 7 10 9 8 8 8 8 8 7 7 7 7 8 7 7 7 6 6 6 7 8 9 10 11 12 10 10 12 10 9 8 8 8 10 7 6 7 7 7 6 6 6 5